Regional Weather Roundup
Issued by NWS

Home | Current Version | Previous Version | Graphics & Text | Print | Product List | Glossary On
Versions: 1 2 3 4 5 6 7 8 9 10 11 12 13 14 15 16 17 18 19 20 21 22 23 24 25
000
ASUS45 KPSR 071310
RWRAZ

ARIZONA HOURLY REGIONAL WEATHER ROUNDUP
NATIONAL WEATHER SERVICE PHOENIX AZ
600 AM MST WED DEC 07 2016

NOTE: FAIR INDICATES FEW OR NO CLOUDS BELOW 12,000 FEET WITH NO
SIGNIFICANT WEATHER AND/OR OBSTRUCTIONS TO VISIBILITY.

AZZ001>003-036-071400-
NORTHWEST ARIZONA

CITY           SKY/WX    TMP DP  RH WIND       PRES   REMARKS
BULLHEAD CITY  PTCLDY    54  21  28 N20G25    29.97R
KINGMAN        PTCLDY    34  28  79 E9        29.98R WCI  27
$$

AZZ004>008-015-016-018-071400-
NORTH CENTRAL ARIZONA

CITY           SKY/WX    TMP DP  RH WIND       PRES   REMARKS
GRAND CANYON   CLOUDY    32  31  96 W5        29.98R WCI  27
PRESCOTT       PTCLDY    29  27  92 CALM      29.98R
FLAGSTAFF      CLOUDY    31  27  85 SW6       29.98R WCI  25
PAYSON         CLOUDY    41  37  87 CALM      30.02R
PAGE           CLOUDY    38   6  26 NW8       30.00R WCI  32
$$

AZZ009>014-017-071400-
NORTHEAST ARIZONA

CITY           SKY/WX    TMP DP  RH WIND       PRES   REMARKS
WINSLOW        PTCLDY    33  28  81 W7        29.98R WCI  27
SAINT JOHNS    CLOUDY    40  31  70 SW7       29.97R
WINDOW ROCK    CLOUDY    32  25  75 CALM      29.96R
SHOW LOW       CLOUDY    36  30  80 S14       30.00R WCI  27
$$

AZZ023-071400-
GREATER PHOENIX AREA

CITY           SKY/WX    TMP DP  RH WIND       PRES   REMARKS
PHOENIX        PTCLDY    48  41  76 E3        29.95R
BUCKEYE        CLOUDY    45  45 100 CALM      29.97R
GLENDALE       PTCLDY    48  46  93 CALM      29.87
LUKE AFB       CLEAR     45  42  90 N5        29.95R
DEER VALLEY    CLEAR     46  42  86 CALM      29.95R
SCOTTSDALE     PTCLDY    48  42  80 NE5       29.96R
MESA-FALCON    PTCLDY   N/A N/A N/A N8        29.93
MESA-GATEWAY   PTCLDY    43  36  75 E5        29.97R
CHANDLER       CLEAR     45  37  76 CALM      29.96
$$

AZZ027-028-071400-
SOUTHWEST MARICOPA COUNTY AND PINAL COUNTY

CITY           SKY/WX    TMP DP  RH WIND       PRES   REMARKS
CASA GRANDE    NOT AVBL
GILA BEND      CLOUDY    48  41  74 CALM      29.95R
$$

AZZ503-504-507>509-071400-
SOUTHEAST ARIZONA

CITY           SKY/WX    TMP DP  RH WIND       PRES   REMARKS
TUCSON         PTCLDY    49  39  68 CALM      29.98R
DAVIS-MONTHAN  MOCLDY    49  40  70 E5        29.97R
RYAN FIELD     CLEAR     52  43  71 CALM      29.98
NOGALES        CLOUDY    50  41  71 CALM      29.99R
SIERRA VISTA   CLOUDY    45  37  73 SE6       30.01R
DOUGLAS        CLOUDY    47  38  71 SE6       30.01R
SAFFORD        MOCLDY    34  27  75 CALM      29.98R
$$

AZZ020-021-025-026-031-071400-
SOUTHWEST ARIZONA

CITY           SKY/WX    TMP DP  RH WIND       PRES   REMARKS
YUMA           PTCLDY    51  44  77 S3        29.95R
$$

CAZ031-033-041-043-047-048-061-071400-
SOUTHERN CALIFORNIA

CITY           SKY/WX    TMP DP  RH WIND       PRES   REMARKS
DOWNTOWN L.A.  MOCLDY    52  44  74 CALM      30.03R
L.A. AIRPORT   MOCLDY    53  42  66 CALM      30.04R
SAN DIEGO      MOCLDY    56  48  74 E6        30.06R
BURBANK        CLOUDY    47  40  76 CALM      30.03R
ONTARIO        CLOUDY    51  48  89 CALM      30.03R
RIVERSIDE      MOCLDY    48  47  96 CALM      30.04R
PALM SPRINGS   MOCLDY    57  43  59 W8G21     29.96R
EL CENTRO NAS  PTCLDY    49  36  61 W6        29.97R
IMPERIAL       PTCLDY    51  39  63 MISG      29.95R
BLYTHE         PTCLDY    50  32  50 N8        29.96R
NEEDLES        PTCLDY    50  26  39 N8        29.97R
$$

NVZ020-UTZ003-071400-
SOUTHERN NEVADA-UTAH

CITY           SKY/WX    TMP DP  RH WIND       PRES   REMARKS
LAS VEGAS      MOCLDY    45   9  23 N15       30.04R
SALT LAKE CITY CLOUDY    24  14  65 N9        30.14R WCI  14
$$

NMZ009-TXZ055-071400-
NEW MEXICO-WEST TEXAS

CITY           SKY/WX    TMP DP  RH WIND       PRES   REMARKS
ALBUQUERQUE    CLOUDY    39  25  57 W6        29.94R WCI  35
EL PASO        CLOUDY    50  30  46 SW8       29.96R
$$


........................KEY........................
SKY/WX - SKY CONDITION/WEATHER
TMP    - TEMPERATURE IN FAHRENHEIT
DP     - DEW POINT IN FAHRENHEIT
RH     - RELATIVE HUMIDITY IN PERCENT
WIND   - DIRECTION AND SPEED IN MILES PER HOUR (MPH)
VRB    - VARIABLE WIND DIRECTION
PRES   - MEAN SEA LEVEL PRESSURE IN INCHES OF MERCURY
         F - FALLING PRESSURE   R - RISING PRESSURE
         S - STEADY PRESSURE
VSB    - VISIBILITY IN MILES
HX     - HEAT INDEX IN FAHRENHEIT
WCI    - WIND CHILL INDEX IN FAHRENHEIT
TC     - TEMPERATURE IN CELSIUS WHICH IS ALSO KNOWN AS
         TEMPERATURE IN CENTIGRADE
AFB    - AIR FORCE BASE
         LUKE AFB IS LUKE AIR FORCE BASE
         DAVIS-MONTHAN IS DAVIS-MONTHAN AIR FORCE BASE
NAS    - NAVAL AIR STATION
         EL CENTRO NAS IS EL CENTRO NAVAL AIR STATION
N/A    - NOT AVAILABLE





USA.gov is the U.S. government's official web portal to all federal, state and local government web resources and services.